Terminal Aerodrome Forecast
Issued by NWS

Home | Current Version | Previous Version | Text Only | Print | Product List | Glossary On
Versions: 1 2 3 4 5 6 7 8 9 10 11 12 13 14 15 16 17 18 19 20 21 22 23 24 25 26
000
FTUS45 KRIW 292300
TAFPNA
TAF
KPNA 292332Z 3000/3024 29008KT P6SM VCSH SCT090
     FM300600 30005KT P6SM VCSH SCT100 BKN150
     FM301200 29007KT P6SM -SHRA BKN080
     FM301700 28012G20KT P6SM VCSH SCT080 BKN110
     FM301900 28020G30KT P6SM VCTS SCT070CB BKN100
      AMD LTD TO CLD VIS AND WIND=

USA.gov is the U.S. government's official web portal to all federal, state and local government web resources and services.